Time,TemperatureF,DewpointF,PressureIn,WindDirection,WindDirectionDegrees,WindSpeedMPH,WindSpeedGustMPH,Humidity,HourlyPrecipIn,Conditions,Clouds,dailyrainin,SoftwareType,DateUTC
2013-06-23 00:06:00,55.3,44.0,29.87,South,169,0.0,5.0,66,0.00,,,0.00,weatherlink.com 1.10,2013-06-23 06:06:00,
2013-06-23 00:21:00,55.5,44.0,29.86,SSE,149,0.0,5.0,66,0.00,,,0.00,weatherlink.com 1.10,2013-06-23 06:21:00,
2013-06-23 00:36:00,56.4,44.0,29.86,SSE,154,5.0,6.0,64,0.00,,,0.00,weatherlink.com 1.10,2013-06-23 06:36:00,
2013-06-23 00:51:00,56.5,44.0,29.86,SSE,152,2.0,8.0,64,0.00,,,0.00,weatherlink.com 1.10,2013-06-23 06:51:00,
2013-06-23 01:06:00,55.8,44.0,29.85,South,173,2.0,7.0,66,0.00,,,0.00,weatherlink.com 1.10,2013-06-23 07:06:00,
2013-06-23 01:21:00,55.3,44.0,29.85,SSE,158,5.0,8.0,67,0.00,,,0.00,weatherlink.com 1.10,2013-06-23 07:21:00,
2013-06-23 01:36:00,55.3,44.0,29.85,SSE,164,0.0,6.0,67,0.00,,,0.00,weatherlink.com 1.10,2013-06-23 07:36:00,
2013-06-23 01:51:00,54.7,44.0,29.85,WSW,253,0.0,8.0,68,0.00,,,0.00,weatherlink.com 1.10,2013-06-23 07:51:00,
2013-06-23 02:06:00,53.4,44.0,29.85,SSE,163,0.0,7.0,71,0.00,,,0.00,weatherlink.com 1.10,2013-06-23 08:06:00,
2013-06-23 02:21:00,54.4,44.0,29.84,SSE,152,6.0,9.0,69,0.00,,,0.00,weatherlink.com 1.10,2013-06-23 08:21:00,
2013-06-23 02:36:00,54.2,45.0,29.84,SE,137,2.0,8.0,71,0.00,,,0.00,weatherlink.com 1.10,2013-06-23 08:36:00,
2013-06-23 02:51:00,53.5,44.0,29.83,SSE,159,1.0,10.0,71,0.00,,,0.00,weatherlink.com 1.10,2013-06-23 08:51:00,
2013-06-23 03:06:00,53.6,44.0,29.84,SSE,153,5.0,9.0,71,0.00,,,0.00,weatherlink.com 1.10,2013-06-23 09:06:00,
2013-06-23 03:21:00,53.6,44.0,29.83,SSE,159,10.0,14.0,70,0.00,,,0.00,weatherlink.com 1.10,2013-06-23 09:21:00,
2013-06-23 03:36:00,53.3,44.0,29.83,South,175,0.0,4.0,71,0.00,,,0.00,weatherlink.com 1.10,2013-06-23 09:36:00,
2013-06-23 03:51:00,52.2,44.0,29.82,West,262,0.0,4.0,74,0.00,,,0.00,weatherlink.com 1.10,2013-06-23 09:51:00,
2013-06-23 04:06:00,52.0,44.0,29.82,SSW,195,0.0,7.0,75,0.00,,,0.00,weatherlink.com 1.10,2013-06-23 10:06:00,
2013-06-23 04:21:00,51.8,44.0,29.82,SSE,164,1.0,7.0,75,0.00,,,0.00,weatherlink.com 1.10,2013-06-23 10:21:00,
2013-06-23 04:36:00,50.4,43.0,29.82,SSE,150,8.0,8.0,77,0.00,,,0.00,weatherlink.com 1.10,2013-06-23 10:36:00,
2013-06-23 04:52:00,52.7,44.0,29.82,SSE,154,3.0,11.0,73,0.00,,,0.00,weatherlink.com 1.10,2013-06-23 10:52:00,
2013-06-23 05:07:00,52.8,44.0,29.82,SSE,151,4.0,14.0,72,0.00,,,0.00,weatherlink.com 1.10,2013-06-23 11:07:00,
2013-06-23 05:22:00,52.9,44.0,29.82,SSW,207,0.0,13.0,72,0.00,,,0.00,weatherlink.com 1.10,2013-06-23 11:22:00,
2013-06-23 05:37:00,51.1,43.0,29.81,WSW,257,0.0,5.0,75,0.00,,,0.00,weatherlink.com 1.10,2013-06-23 11:37:00,
2013-06-23 05:52:00,50.5,44.0,29.80,SE,144,0.0,7.0,78,0.00,,,0.00,weatherlink.com 1.10,2013-06-23 11:52:00,
2013-06-23 06:07:00,51.8,44.0,29.80,South,169,4.0,15.0,74,0.00,,,0.00,weatherlink.com 1.10,2013-06-23 12:07:00,
2013-06-23 06:22:00,52.2,43.0,29.80,SW,217,5.0,10.0,72,0.00,,,0.00,weatherlink.com 1.10,2013-06-23 12:22:00,
2013-06-23 06:37:00,52.2,43.0,29.80,SSE,167,1.0,11.0,72,0.00,,,0.00,weatherlink.com 1.10,2013-06-23 12:37:00,
2013-06-23 06:52:00,53.2,43.0,29.80,SSE,159,7.0,16.0,69,0.00,,,0.00,weatherlink.com 1.10,2013-06-23 12:52:00,
2013-06-23 07:07:00,53.8,44.0,29.80,SSE,165,2.0,14.0,69,0.00,,,0.00,weatherlink.com 1.10,2013-06-23 13:07:00,
2013-06-23 07:22:00,55.0,44.0,29.80,SE,144,3.0,12.0,67,0.00,,,0.00,weatherlink.com 1.10,2013-06-23 13:22:00,
2013-06-23 07:37:00,55.9,44.0,29.79,SSE,147,7.0,15.0,65,0.00,,,0.00,weatherlink.com 1.10,2013-06-23 13:37:00,
2013-06-23 07:52:00,56.7,45.0,29.78,SE,131,2.0,12.0,64,0.00,,,0.00,weatherlink.com 1.10,2013-06-23 13:52:00,
2013-06-23 08:07:00,57.4,45.0,29.78,SE,138,3.0,11.0,63,0.00,,,0.00,weatherlink.com 1.10,2013-06-23 14:07:00,
2013-06-23 08:22:00,58.1,45.0,29.77,SE,132,6.0,16.0,62,0.00,,,0.00,weatherlink.com 1.10,2013-06-23 14:22:00,
2013-06-23 08:37:00,58.4,45.0,29.77,SSE,165,7.0,16.0,62,0.00,,,0.00,weatherlink.com 1.10,2013-06-23 14:37:00,
2013-06-23 08:52:00,58.4,45.0,29.77,SSE,148,3.0,16.0,62,0.00,,,0.00,weatherlink.com 1.10,2013-06-23 14:52:00,
2013-06-23 09:07:00,59.6,45.0,29.77,SE,128,12.0,14.0,60,0.00,,,0.00,weatherlink.com 1.10,2013-06-23 15:07:00,
2013-06-23 09:22:00,60.0,44.0,29.76,SSE,149,6.0,11.0,57,0.00,,,0.00,weatherlink.com 1.10,2013-06-23 15:22:00,
2013-06-23 09:52:00,61.8,44.0,29.75,ESE,121,10.0,15.0,52,0.00,,,0.00,weatherlink.com 1.10,2013-06-23 15:52:00,
2013-06-23 10:07:00,62.8,45.0,29.74,ESE,121,7.0,12.0,52,0.00,,,0.00,weatherlink.com 1.10,2013-06-23 16:07:00,
2013-06-23 10:22:00,63.4,45.0,29.74,SE,132,6.0,14.0,52,0.00,,,0.00,weatherlink.com 1.10,2013-06-23 16:22:00,
2013-06-23 10:37:00,64.1,45.0,29.73,SE,142,7.0,17.0,50,0.00,,,0.00,weatherlink.com 1.10,2013-06-23 16:37:00,
2013-06-23 10:52:00,64.4,45.0,29.72,SE,140,8.0,15.0,50,0.00,,,0.00,weatherlink.com 1.10,2013-06-23 16:52:00,
2013-06-23 11:08:00,65.1,45.0,29.71,SE,137,5.0,14.0,48,0.00,,,0.00,weatherlink.com 1.10,2013-06-23 17:08:00,
2013-06-23 11:23:00,65.7,45.0,29.71,SSE,152,10.0,18.0,47,0.00,,,0.00,weatherlink.com 1.10,2013-06-23 17:23:00,
2013-06-23 11:38:00,66.2,46.0,29.70,ESE,117,15.0,18.0,48,0.00,,,0.00,weatherlink.com 1.10,2013-06-23 17:38:00,
2013-06-23 11:53:00,67.0,46.0,29.69,SE,135,9.0,16.0,48,0.00,,,0.00,weatherlink.com 1.10,2013-06-23 17:53:00,
2013-06-23 12:08:00,67.7,46.0,29.68,SSE,164,16.0,16.0,46,0.00,,,0.00,weatherlink.com 1.10,2013-06-23 18:08:00,
2013-06-23 12:23:00,67.9,46.0,29.68,SSE,157,7.0,16.0,46,0.00,,,0.00,weatherlink.com 1.10,2013-06-23 18:23:00,
2013-06-23 12:38:00,68.6,46.0,29.68,SSE,163,3.0,15.0,45,0.00,,,0.00,weatherlink.com 1.10,2013-06-23 18:38:00,
2013-06-23 12:53:00,68.9,44.0,29.67,ESE,113,11.0,17.0,41,0.00,,,0.00,weatherlink.com 1.10,2013-06-23 18:53:00,
2013-06-23 13:08:00,69.6,45.0,29.66,SSE,163,2.0,14.0,42,0.00,,,0.00,weatherlink.com 1.10,2013-06-23 19:08:00,
2013-06-23 13:23:00,70.2,47.0,29.66,SE,137,4.0,17.0,44,0.00,,,0.00,weatherlink.com 1.10,2013-06-23 19:23:00,
2013-06-23 13:38:00,70.9,46.0,29.64,SSW,197,3.0,12.0,41,0.00,,,0.00,weatherlink.com 1.10,2013-06-23 19:38:00,
2013-06-23 13:53:00,71.2,44.0,29.64,SSE,157,12.0,12.0,38,0.00,,,0.00,weatherlink.com 1.10,2013-06-23 19:53:00,
2013-06-23 14:08:00,71.2,42.0,29.64,SSE,150,2.0,12.0,35,0.00,,,0.00,weatherlink.com 1.10,2013-06-23 20:08:00,
2013-06-23 14:23:00,72.0,48.0,29.63,SE,138,5.0,16.0,42,0.00,,,0.00,weatherlink.com 1.10,2013-06-23 20:23:00,
2013-06-23 14:38:00,72.4,45.0,29.62,SSE,165,6.0,8.0,38,0.00,,,0.00,weatherlink.com 1.10,2013-06-23 20:38:00,
2013-06-23 14:53:00,72.5,44.0,29.62,ESE,121,0.0,12.0,36,0.00,,,0.00,weatherlink.com 1.10,2013-06-23 20:53:00,
2013-06-23 15:08:00,74.6,42.0,29.61,NW,310,1.0,10.0,31,0.00,,,0.00,weatherlink.com 1.10,2013-06-23 21:08:00,
2013-06-23 15:23:00,75.4,43.0,29.61,WSW,250,3.0,7.0,31,0.00,,,0.00,weatherlink.com 1.10,2013-06-23 21:23:00,
2013-06-23 15:38:00,75.7,38.0,29.61,SW,228,0.0,6.0,26,0.00,,,0.00,weatherlink.com 1.10,2013-06-23 21:38:00,
2013-06-23 15:53:00,75.3,42.0,29.60,WNW,283,1.0,5.0,30,0.00,,,0.00,weatherlink.com 1.10,2013-06-23 21:53:00,
2013-06-23 16:08:00,76.5,42.0,29.60,SSE,150,6.0,6.0,29,0.00,,,0.00,weatherlink.com 1.10,2013-06-23 22:08:00,
2013-06-23 16:23:00,76.4,42.0,29.60,West,281,0.0,3.0,29,0.00,,,0.00,weatherlink.com 1.10,2013-06-23 22:23:00,
2013-06-23 16:38:00,76.5,40.0,29.60,WSW,240,0.0,3.0,27,0.00,,,0.00,weatherlink.com 1.10,2013-06-23 22:38:00,
2013-06-23 16:53:00,76.4,41.0,29.59,West,268,5.0,7.0,28,0.00,,,0.00,weatherlink.com 1.10,2013-06-23 22:53:00,
2013-06-23 17:08:00,75.7,43.0,29.59,WNW,296,2.0,6.0,31,0.00,,,0.00,weatherlink.com 1.10,2013-06-23 23:08:00,
2013-06-23 17:23:00,75.1,43.0,29.59,WNW,290,2.0,7.0,32,0.00,,,0.00,weatherlink.com 1.10,2013-06-23 23:23:00,
2013-06-23 17:38:00,74.5,40.0,29.58,NW,310,6.0,10.0,29,0.00,,,0.00,weatherlink.com 1.10,2013-06-23 23:38:00,
2013-06-23 17:53:00,73.7,44.0,29.58,West,276,2.0,8.0,35,0.00,,,0.00,weatherlink.com 1.10,2013-06-23 23:53:00,
2013-06-23 18:08:00,74.3,40.0,29.58,WNW,292,1.0,8.0,29,0.00,,,0.00,weatherlink.com 1.10,2013-06-24 00:08:00,
2013-06-23 18:24:00,74.3,42.0,29.57,WNW,284,0.0,5.0,31,0.00,,,0.00,weatherlink.com 1.10,2013-06-24 00:24:00,
2013-06-23 18:39:00,73.4,44.0,29.57,WNW,286,2.0,3.0,35,0.00,,,0.00,weatherlink.com 1.10,2013-06-24 00:39:00,
2013-06-23 18:54:00,73.1,45.0,29.57,NW,307,1.0,4.0,36,0.00,,,0.00,weatherlink.com 1.10,2013-06-24 00:54:00,
2013-06-23 19:09:00,73.2,45.0,29.57,NNW,328,0.0,2.0,36,0.00,,,0.00,weatherlink.com 1.10,2013-06-24 01:09:00,
2013-06-23 19:24:00,72.4,45.0,29.57,NW,323,2.0,3.0,38,0.00,,,0.00,weatherlink.com 1.10,2013-06-24 01:24:00,
2013-06-23 19:39:00,71.4,45.0,29.57,NNW,331,0.0,2.0,39,0.00,,,0.00,weatherlink.com 1.10,2013-06-24 01:39:00,
2013-06-23 19:54:00,70.5,46.0,29.57,North,351,1.0,3.0,41,0.00,,,0.00,weatherlink.com 1.10,2013-06-24 01:54:00,
2013-06-23 20:09:00,69.8,44.0,29.57,NNW,333,0.0,0.0,39,0.00,,,0.00,weatherlink.com 1.10,2013-06-24 02:09:00,
2013-06-23 20:24:00,69.6,44.0,29.57,NNE,13,0.0,0.0,40,0.00,,,0.00,weatherlink.com 1.10,2013-06-24 02:24:00,
2013-06-23 20:39:00,69.2,43.0,29.57,NE,49,0.0,3.0,39,0.00,,,0.00,weatherlink.com 1.10,2013-06-24 02:39:00,
2013-06-23 20:54:00,68.6,43.0,29.57,NE,49,0.0,0.0,40,0.00,,,0.00,weatherlink.com 1.10,2013-06-24 02:54:00,
2013-06-23 21:09:00,67.4,48.0,29.57,NNE,23,0.0,1.0,50,0.00,,,0.00,weatherlink.com 1.10,2013-06-24 03:09:00,
2013-06-23 21:24:00,65.9,45.0,29.57,SE,128,1.0,3.0,48,0.00,,,0.00,weatherlink.com 1.10,2013-06-24 03:24:00,
2013-06-23 21:39:00,65.8,44.0,29.57,SE,126,1.0,2.0,45,0.00,,,0.00,weatherlink.com 1.10,2013-06-24 03:39:00,
2013-06-23 21:54:00,66.5,45.0,29.57,SSE,165,0.0,3.0,46,0.00,,,0.00,weatherlink.com 1.10,2013-06-24 03:54:00,
2013-06-23 22:09:00,65.8,47.0,29.57,SE,144,0.0,0.0,51,0.00,,,0.00,weatherlink.com 1.10,2013-06-24 04:09:00,
2013-06-23 22:24:00,64.3,43.0,29.57,SSE,165,0.0,3.0,47,0.00,,,0.00,weatherlink.com 1.10,2013-06-24 04:24:00,
2013-06-23 22:39:00,64.3,47.0,29.57,SW,221,0.0,0.0,54,0.00,,,0.00,weatherlink.com 1.10,2013-06-24 04:39:00,
2013-06-23 22:54:00,63.2,48.0,29.57,SW,214,0.0,0.0,58,0.00,,,0.00,weatherlink.com 1.10,2013-06-24 04:54:00,
2013-06-23 23:09:00,62.6,47.0,29.57,SSW,213,0.0,0.0,57,0.00,,,0.00,weatherlink.com 1.10,2013-06-24 05:09:00,
2013-06-23 23:24:00,62.1,48.0,29.57,WSW,248,1.0,2.0,60,0.00,,,0.00,weatherlink.com 1.10,2013-06-24 05:24:00,
2013-06-23 23:39:00,61.6,49.0,29.57,WSW,251,0.0,2.0,63,0.00,,,0.00,weatherlink.com 1.10,2013-06-24 05:39:00,
2013-06-23 23:54:00,61.2,47.0,29.57,WSW,252,0.0,1.0,61,0.00,,,0.00,weatherlink.com 1.10,2013-06-24 05:54:00,